• En España
  • Lista de países
  • Para 7 días
  • Temperatura del agua
  • Mapa Satelital
  • El tiempo en el mapa
  • Informadores
  • user-avatar
    Iniciar sesión

    Tiempo cada hora Sidi Bu-l-Abbas

    Hoy, 22 Febrero, Jueves

    Tiempo Temperatura Precipitaciones Viento Presión Humedad
    00:00 +7°C° 0,2 mm 3 mps 712 mmHg 91%
    01:00 +6°C° 0,1 mm 2 mps 712 mmHg 91%
    02:00 +6°C° 0,1 mm 2 mps 712 mmHg 91%
    03:00 +6°C° 0,1 mm 2 mps 712 mmHg 91%
    04:00 +6°C° 0 mm 2 mps 712 mmHg 89%
    05:00 +6°C° 0 mm 2 mps 712 mmHg 88%
    06:00 +6°C° 0 mm 2 mps 712 mmHg 86%
    07:00 +7°C° 0 mm 2 mps 712 mmHg 80%
    08:00 +7°C° 0 mm 2 mps 713 mmHg 75%
    09:00 +8°C° 0 mm 2 mps 713 mmHg 69%
    10:00 +10°C° 0 mm 1 mps 713 mmHg 62%
    11:00 +11°C° 0 mm 1 mps 713 mmHg 55%
    12:00 +11°C° 0 mm 1 mps 713 mmHg 48%
    13:00 +12°C° 0 mm 2 mps 713 mmHg 47%
    14:00 +12°C° 0 mm 3 mps 712 mmHg 45%
    15:00 +12°C° 0 mm 4 mps 712 mmHg 44%
    16:00 +11°C° 0 mm 3 mps 712 mmHg 50%
    17:00 +9°C° 0 mm 3 mps 712 mmHg 57%
    18:00 +8°C° 0 mm 2 mps 712 mmHg 63%
    19:00 +8°C° 0 mm 2 mps 712 mmHg 68%
    20:00 +7°C° 0 mm 2 mps 713 mmHg 72%
    21:00 +7°C° 0 mm 1 mps 713 mmHg 76%
    22:00 +6°C° 0 mm 2 mps 713 mmHg 76%
    23:00 +6°C° 0 mm 2 mps 713 mmHg 76%

    Mañana, 23 Febrero, Viernes

    Tiempo Temperatura Precipitaciones Viento Presión Humedad
    00:00 +6°C° 0 mm 2 mps 713 mmHg 76%
    01:00 +6°C° 0 mm 2 mps 712 mmHg 77%
    02:00 +6°C° 0 mm 2 mps 712 mmHg 79%
    03:00 +6°C° 0 mm 2 mps 712 mmHg 80%
    04:00 +5°C° 0 mm 2 mps 712 mmHg 81%
    05:00 +5°C° 0 mm 2 mps 712 mmHg 82%
    06:00 +5°C° 0 mm 2 mps 712 mmHg 83%
    07:00 +7°C° 0 mm 2 mps 712 mmHg 76%
    08:00 +9°C° 0 mm 1 mps 713 mmHg 68%
    09:00 +11°C° 0 mm 1 mps 713 mmHg 61%
    10:00 +12°C° 0 mm 1 mps 713 mmHg 54%
    11:00 +13°C° 0 mm 2 mps 713 mmHg 48%
    12:00 +15°C° 0 mm 2 mps 712 mmHg 41%
    13:00 +15°C° 0 mm 2 mps 712 mmHg 40%
    14:00 +16°C° 0 mm 3 mps 711 mmHg 38%
    15:00 +15°C° 0 mm 4 mps 711 mmHg 36%
    16:00 +14°C° 0 mm 4 mps 711 mmHg 42%
    17:00 +12°C° 0 mm 4 mps 711 mmHg 48%
    18:00 +11°C° 0 mm 4 mps 710 mmHg 54%
    19:00 +10°C° 0 mm 3 mps 711 mmHg 57%
    20:00 +9°C° 0 mm 3 mps 711 mmHg 60%
    21:00 +8°C° 0 mm 3 mps 711 mmHg 63%
    22:00 +8°C° 0 mm 2 mps 711 mmHg 64%
    23:00 +7°C° 0 mm 2 mps 711 mmHg 65%

    Pasado mañana, 24 Febrero, Sábado

    Tiempo Temperatura Precipitaciones Viento Presión Humedad
    00:00 +7°C° 0 mm 2 mps 711 mmHg 67%
    01:00 +7°C° 0 mm 1 mps 710 mmHg 67%
    02:00 +7°C° 0 mm 1 mps 710 mmHg 68%
    03:00 +7°C° 0 mm 1 mps 710 mmHg 69%
    04:00 +7°C° 0 mm 1 mps 710 mmHg 70%
    05:00 +6°C° 0 mm 1 mps 710 mmHg 71%
    06:00 +6°C° 0 mm 1 mps 710 mmHg 72%
    07:00 +8°C° 0 mm 1 mps 710 mmHg 66%
    08:00 +9°C° 0 mm 1 mps 711 mmHg 60%
    09:00 +11°C° 0 mm 1 mps 711 mmHg 54%
    10:00 +12°C° 0 mm 2 mps 712 mmHg 51%
    11:00 +12°C° 0 mm 3 mps 712 mmHg 49%
    12:00 +13°C° 0 mm 3 mps 712 mmHg 46%
    13:00 +13°C° 0 mm 4 mps 712 mmHg 47%
    14:00 +13°C° 0 mm 4 mps 712 mmHg 47%
    15:00 +13°C° 0 mm 5 mps 712 mmHg 48%
    16:00 +12°C° 0 mm 4 mps 713 mmHg 55%
    17:00 +10°C° 0 mm 3 mps 713 mmHg 62%
    18:00 +9°C° 0 mm 3 mps 714 mmHg 69%
    19:00 +8°C° 0 mm 2 mps 714 mmHg 75%
    20:00 +8°C° 0 mm 1 mps 715 mmHg 81%
    21:00 +6°C° 0 mm 0 mps 715 mmHg 86%
    22:00 +7°C° 0 mm 1 mps 716 mmHg 86%
    23:00 +7°C° 0 mm 1 mps 716 mmHg 87%

    25 Febrero, Domingo

    Tiempo Temperatura Precipitaciones Viento Presión Humedad
    00:00 +6°C° 0 mm 1 mps 716 mmHg 87%
    01:00 +6°C° 0 mm 1 mps 716 mmHg 86%
    02:00 +6°C° 0 mm 1 mps 716 mmHg 85%
    03:00 +6°C° 0 mm 1 mps 715 mmHg 84%
    04:00 +6°C° 0 mm 1 mps 716 mmHg 83%
    05:00 +5°C° 0 mm 1 mps 716 mmHg 81%
    06:00 +5°C° 0 mm 1 mps 716 mmHg 80%
    07:00 +8°C° 0 mm 1 mps 716 mmHg 71%
    08:00 +10°C° 0 mm 1 mps 717 mmHg 61%
    09:00 +12°C° 0 mm 1 mps 718 mmHg 51%
    10:00 +13°C° 0 mm 1 mps 718 mmHg 48%
    11:00 +14°C° 0 mm 2 mps 717 mmHg 45%
    12:00 +16°C° 0 mm 2 mps 717 mmHg 42%
    13:00 +16°C° 0 mm 2 mps 717 mmHg 42%
    14:00 +17°C° 0 mm 2 mps 717 mmHg 41%
    15:00 +17°C° 0 mm 3 mps 716 mmHg 41%
    16:00 +15°C° 0 mm 2 mps 716 mmHg 47%
    17:00 +14°C° 0 mm 2 mps 716 mmHg 52%
    18:00 +12°C° 0 mm 2 mps 716 mmHg 58%
    19:00 +12°C° 0 mm 2 mps 716 mmHg 59%
    20:00 +10°C° 0 mm 2 mps 716 mmHg 61%
    21:00 +10°C° 0 mm 2 mps 716 mmHg 62%
    22:00 +10°C° 0 mm 2 mps 715 mmHg 61%
    23:00 +9°C° 0 mm 2 mps 715 mmHg 60%

    26 Febrero, Lunes

    Tiempo Temperatura Precipitaciones Viento Presión Humedad
    00:00 +9°C° 0 mm 2 mps 715 mmHg 58%
    01:00 +9°C° 0 mm 2 mps 714 mmHg 57%
    02:00 +9°C° 0 mm 2 mps 714 mmHg 56%
    03:00 +9°C° 0 mm 2 mps 713 mmHg 55%
    04:00 +9°C° 0 mm 2 mps 713 mmHg 55%
    05:00 +9°C° 0 mm 2 mps 713 mmHg 56%
    06:00 +9°C° 0 mm 2 mps 713 mmHg 56%
    07:00 +11°C° 0 mm 3 mps 713 mmHg 51%
    08:00 +13°C° 0 mm 3 mps 713 mmHg 45%
    09:00 +17°C° 0 mm 3 mps 713 mmHg 40%
    10:00 +18°C° 0 mm 3 mps 713 mmHg 38%
    11:00 +19°C° 0 mm 4 mps 712 mmHg 37%
    12:00 +21°C° 0 mm 4 mps 712 mmHg 35%
    13:00 +21°C° 0 mm 4 mps 711 mmHg 35%
    14:00 +21°C° 0 mm 4 mps 711 mmHg 36%
    15:00 +21°C° 0 mm 4 mps 710 mmHg 36%
    16:00 +19°C° 0 mm 3 mps 710 mmHg 43%
    17:00 +17°C° 0 mm 3 mps 710 mmHg 50%
    18:00 +15°C° 0 mm 2 mps 710 mmHg 56%
    19:00 +13°C° 0,3 mm 3 mps 711 mmHg 62%
    20:00 +13°C° 0,3 mm 4 mps 711 mmHg 68%
    21:00 +12°C° 0,3 mm 5 mps 712 mmHg 74%
    22:00 +10°C° 0,5 mm 5 mps 712 mmHg 78%
    23:00 +10°C° 0,5 mm 5 mps 713 mmHg 82%

    27 Febrero, Martes

    Tiempo Temperatura Precipitaciones Viento Presión Humedad
    00:00 +9°C° 0,5 mm 5 mps 713 mmHg 85%
    01:00 +9°C° 0,3 mm 5 mps 713 mmHg 84%
    02:00 +9°C° 0,3 mm 5 mps 713 mmHg 83%
    03:00 +9°C° 0,3 mm 5 mps 713 mmHg 82%
    04:00 +9°C° 0,1 mm 6 mps 713 mmHg 81%
    05:00 +9°C° 0,1 mm 6 mps 713 mmHg 81%
    06:00 +9°C° 0,1 mm 7 mps 713 mmHg 80%
    07:00 +10°C° 0 mm 8 mps 714 mmHg 76%
    08:00 +10°C° 0 mm 9 mps 715 mmHg 72%
    09:00 +11°C° 0 mm 10 mps 715 mmHg 67%
    10:00 +12°C° 0 mm 10 mps 716 mmHg 62%
    11:00 +13°C° 0 mm 10 mps 716 mmHg 57%
    12:00 +14°C° 0 mm 10 mps 716 mmHg 51%
    13:00 +14°C° 0 mm 10 mps 716 mmHg 51%
    14:00 +15°C° 0 mm 9 mps 716 mmHg 51%
    15:00 +15°C° 0 mm 9 mps 715 mmHg 50%
    16:00 +14°C° 0 mm 7 mps 715 mmHg 57%
    17:00 +13°C° 0 mm 5 mps 716 mmHg 63%
    18:00 +12°C° 0 mm 3 mps 716 mmHg 69%
    19:00 +11°C° 0 mm 3 mps 716 mmHg 72%
    20:00 +10°C° 0 mm 2 mps 716 mmHg 75%
    21:00 +10°C° 0 mm 2 mps 716 mmHg 78%
    22:00 +9°C° 0 mm 2 mps 716 mmHg 75%
    23:00 +9°C° 0 mm 2 mps 716 mmHg 73%
    Mostrar más